Weather History for South Lake Tahoe, CA

Change the Weather History Date:

Thursday, January 16, 2014

  Actual Average Record
Temperature  
Mean Temperature 36 °F 30 °F  
Max Temperature 56 °F 43 °F 60 °F (2011)
Min Temperature 16 °F 16 °F -5 °F (1979)
Degree Days  
Heating Degree Days 29 35  
Month to date heating degree days 453 567  
Since 1 July heating degree days 3411 3750  
Cooling Degree Days 0 0  
Month to date cooling degree days 0 0  
Year to date cooling degree days 0 0  
Moisture  
Dew Point 13 °F    
Average Humidity 45    
Maximum Humidity 74    
Minimum Humidity 15    
Precipitation  
Precipitation 0.00 in - 1.85 in (1970)
Month to date precipitation 0.17  
Year to date precipitation 0.17  
Sea Level Pressure  
Sea Level Pressure 30.46 in    
Wind  
Wind Speed 3 mph (SSW)    
Max Wind Speed 25 mph    
Max Gust Speed 28 mph    
Visibility 10 miles    
Events      
T = Trace of Precipitation, MM = Missing Value Source: NWS Daily Summary

Daily Weather History Graph

Daily Weather History Graph

Search for Another Location

Airport:

Trip Planner

Search our weather history database for the weather conditions in past years. The results will help you decide how hot, cold, wet, or windy it might be!

Date:

Astronomy

Jan. 16, 2014 Rise Set
Actual Time 7:16 AM PST 5:03 PM PST
Civil Twilight 6:47 AM PST 5:32 PM PST
Nautical Twilight 6:14 AM PST 6:05 PM PST
Astronomical Twilight 5:42 AM PST 6:37 PM PST
Moon 5:58 PM PST (1/16) 7:14 AM PST (1/16)
Length of Visible Light 10h 44m
Length of Day
9h 46m
Full, 100% of the Moon is Illuminated
Jan 16
Full
Jan 23
Last Quarter
Jan 30
New
Feb 6
First Quarter
Feb 14
Full

Hourly Weather History & Observations

Time (PST) Temp. Windchill Dew Point Humidity Pressure Visibility Wind Dir Wind Speed Gust Speed Precip Events Conditions
12:53 AM 24.1 °F 19.7 °F 14.0 °F 65% 30.45 in 10.0 mi Variable 3.5 mph - N/A   Clear
1:53 AM 23.0 °F 18.4 °F 12.9 °F 65% 30.44 in 10.0 mi South 3.5 mph - N/A   Clear
2:53 AM 21.0 °F 14.6 °F 12.0 °F 68% 30.45 in 10.0 mi South 4.6 mph - N/A   Clear
3:53 AM 19.9 °F 14.9 °F 12.0 °F 71% 30.45 in 10.0 mi South 3.5 mph - N/A   Clear
4:53 AM 19.9 °F 13.4 °F 10.9 °F 68% 30.49 in 10.0 mi SW 4.6 mph - N/A   Clear
5:53 AM 18.0 °F - 10.0 °F 71% 30.52 in 10.0 mi Calm Calm - N/A   Clear
6:53 AM 17.1 °F - 10.0 °F 74% 30.54 in 10.0 mi Calm Calm - N/A   Clear
7:53 AM 16.0 °F 8.8 °F 9.0 °F 74% 30.57 in 10.0 mi SSW 4.6 mph - N/A   Clear
8:53 AM 25.0 °F 18.1 °F 14.0 °F 63% 30.56 in 10.0 mi South 5.8 mph - N/A   Clear
9:53 AM 34.0 °F - 15.1 °F 46% 30.54 in 10.0 mi Calm Calm - N/A   Clear
10:53 AM 46.0 °F - 15.1 °F 29% 30.48 in 10.0 mi Calm Calm - N/A   Clear
11:53 AM 52.0 °F - 8.1 °F 17% 30.43 in 10.0 mi Variable 4.6 mph - N/A   Clear
12:53 PM 53.1 °F - 10.0 °F 18% 30.38 in 10.0 mi NNE 6.9 mph - N/A   Clear
1:53 PM 54.0 °F - 10.9 °F 18% 30.36 in 10.0 mi Variable 3.5 mph - N/A   Clear
2:53 PM 55.0 °F - 8.1 °F 15% 30.35 in 10.0 mi NW 4.6 mph - N/A   Clear
3:53 PM 48.9 °F - 10.9 °F 22% 30.38 in 10.0 mi Calm Calm - N/A   Clear
4:53 PM 42.1 °F - 14.0 °F 32% 30.42 in 10.0 mi Calm Calm - N/A   Clear
5:53 PM 36.0 °F 33.3 °F 16.0 °F 44% 30.46 in 10.0 mi South 3.5 mph - N/A   Clear
6:53 PM 33.1 °F - 15.1 °F 48% 30.48 in 10.0 mi Calm Calm - N/A   Clear
7:53 PM 30.0 °F - 15.1 °F 54% 30.50 in 10.0 mi Calm Calm - N/A   Clear
8:53 PM 28.0 °F - 16.0 °F 61% 30.48 in 10.0 mi Calm Calm - N/A   Clear
9:53 PM 27.0 °F - 16.0 °F 63% 30.45 in 10.0 mi Calm Calm - N/A   Clear
10:53 PM 26.1 °F 21.9 °F 15.1 °F 63% 30.40 in 10.0 mi South 3.5 mph - N/A   Clear
11:53 PM 25.0 °F - 14.0 °F 63% 30.37 in 10.0 mi Calm Calm - N/A   Clear